This is the latest recevied weather packets stored in our database for station/object KC3WWU. If no packets are shown the sender has not sent any weather packets the latest 10 day(s).
| Time | Temp. | Humidity | Pressure | Rain* | Wind** | Luminosity | Snow |
|---|---|---|---|---|---|---|---|
| 1778138092 | 5° C | 85% | 1010.4 hPa | 0 mm | - | 0 W/m² | - |
| 1778137788 | 5° C | 87% | 1010.4 hPa | 0 mm | - | 0 W/m² | - |
| 1778137486 | 5° C | 86% | 1010.3 hPa | 0 mm | - | 0 W/m² | - |
| 1778137182 | 5° C | 87% | 1009.9 hPa | 0 mm | - | 0 W/m² | - |
| 1778136879 | 5.56° C | 88% | 1010 hPa | 0 mm | - | 0 W/m² | - |
| 1778136576 | 5.56° C | 84% | 1010.3 hPa | 0 mm | - | 0 W/m² | - |
| 1778136275 | 5.56° C | 81% | 1010.5 hPa | 0 mm | - | 0 W/m² | - |
| 1778135972 | 5.56° C | 81% | 1010.4 hPa | 0 mm | - | 0 W/m² | - |
| 1778135669 | 5.56° C | 82% | 1010.3 hPa | 0 mm | - | 0 W/m² | - |
| 1778135366 | 5.56° C | 80% | 1010.5 hPa | 0 mm | - | 0 W/m² | - |
| 1778135063 | 5.56° C | 78% | 1010.4 hPa | 0 mm | - | 0 W/m² | - |
| 1778134755 | 5.56° C | 79% | 1010.3 hPa | 0 mm | - | 0 W/m² | - |
| 1778134452 | 6.11° C | 79% | 1010.5 hPa | 0 mm | - | 0 W/m² | - |
| 1778134151 | 5.56° C | 77% | 1010.7 hPa | 0 mm | - | 0 W/m² | - |
| 1778133847 | 6.11° C | 80% | 1010.7 hPa | 0 mm | - | 0 W/m² | - |
| 1778133544 | 6.11° C | 77% | 1010.7 hPa | 0 mm | - | 0 W/m² | - |
| 1778133239 | 6.11° C | 79% | 1010.7 hPa | 0 mm | - | 0 W/m² | - |
| 1778132937 | 5.56° C | 79% | 1010.8 hPa | 0 mm | - | 0 W/m² | - |
| 1778132633 | 6.11° C | 79% | 1010.8 hPa | 0 mm | - | 0 W/m² | - |
| 1778132330 | 6.11° C | 78% | 1010.8 hPa | 0 mm | - | 0 W/m² | - |
| 1778132028 | 6.11° C | 76% | 1010.7 hPa | 0 mm | - | 0 W/m² | - |
| 1778131726 | 6.11° C | 81% | 1010.6 hPa | 0 mm | - | 0 W/m² | - |
| 1778131423 | 6.11° C | 82% | 1010.7 hPa | 0 mm | - | 0 W/m² | - |
| 1778131120 | 6.11° C | 83% | 1010.6 hPa | 0 mm | - | 0 W/m² | - |
| 1778130817 | 6.11° C | 86% | 1010.7 hPa | 0 mm | - | 0 W/m² | - |
* Rain latest hour (hover to see other rain measurements)
** Current wind speed in m/s (hover to see current wind gust speed)